[[{"header":{"parameterUnit":"m.s-1","parameterCategory":1,"la1":30.2992,"la2":30.254,"lo1":-89.0895,"lo2":-89.0443,"dy":0.0025,"dx":0.0025,"nx":19,"ny":19,"refTime":"2026-05-18T03:00:00:Z","depth":0,"parameterNumber":2,"parameterNumberName":"U-component_of_WINDS"},"data":[0,0,0,-3.8699,-3.8701,-3.8793,-3.8794,-3.8921,-3.8922,0,0,0,0,0,0,0,0,0,0,0,-3.8678,-3.8679,-3.8699,-3.8701,-3.8793,-3.8794,-3.8921,-3.8922,0,0,0,0,0,0,0,0,0,0,0,-3.8677,-3.8678,-3.868,-3.8701,-3.8793,-3.8794,-3.892,-3.8847,0,0,0,0,0,0,0,0,0,0,-3.8756,-3.8743,-3.8678,-3.868,-3.8702,-3.8793,-3.8794,-3.8843,-3.8852,-3.8883,0,-3.8913,0,-3.892,-3.8931,-3.8932,0,0,0,-3.8696,-3.8736,-3.8755,-3.868,-3.8703,-3.8793,-3.875,-3.8848,-3.8857,-3.8894,-3.8915,-3.892,-3.8922,-3.8932,-3.8933,-3.9132,-3.9133,0,0,-3.8691,-3.8697,-3.8749,-3.8762,-3.8749,-3.8747,-3.8753,-3.8853,-3.8876,-3.8916,-3.8922,-3.8924,-3.8933,-3.8934,-3.9131,-3.9132,0,0,0,-3.868,-3.8694,-3.8711,-3.8757,-3.8773,-3.875,-3.8757,-3.8872,-3.8877,-3.8924,-3.8926,-3.8934,-3.8935,-3.913,-3.9131,-3.9194,0,0,0,-3.8676,-3.8687,-3.8709,-3.8714,-3.8771,-3.8824,-3.8773,-3.887,-3.8881,-3.8925,-3.8934,-3.8937,-3.9128,-3.9131,-3.919,-3.9222,0,0,0,-3.8669,-3.8686,-3.8702,-3.8714,-3.8754,-3.8822,-3.8832,-3.8872,-3.8883,-3.8932,-3.8937,-3.9128,-3.913,-3.9186,-3.9216,-3.9275,0,0,0,-3.8664,-3.8757,-3.8703,-3.8808,-3.8753,-3.8861,-3.8832,-3.8912,-3.8961,-3.8934,-3.9129,-3.9131,-3.9185,-3.9212,-3.9271,-3.9325,-3.9349,0,0,-3.8785,-3.8772,-3.8833,-3.8788,-3.8907,-3.8846,-3.8974,-3.9014,-3.9012,-3.9092,-3.9097,-3.9191,-3.9215,-3.9274,-3.9484,-3.9503,0,0,0,-3.8873,-3.8917,-3.8947,-3.8996,-3.9029,-3.9059,-3.9078,-3.9093,-3.9161,-3.9055,-3.923,-3.9244,-3.9278,-3.9304,-3.932,-3.9349,-3.9144,-3.9144,-3.9143,-3.9052,-3.9046,-3.9147,-3.9152,-3.92,-3.9219,-3.9256,-3.9279,-3.9259,-3.9301,-3.9323,-3.9451,-3.9482,-3.9494,-3.9524,-3.9354,-3.9354,-3.9354,-3.9354,-3.9227,-3.9287,-3.926,-3.9347,-3.9341,-3.9414,-3.9436,-3.942,-3.9486,-3.9434,-3.9464,-3.9405,-3.9515,-3.954,-3.9359,-3.9358,-3.9357,-3.9357,-3.9357,-3.9342,-3.9369,-3.9387,-3.9456,-3.951,-3.9513,-3.9578,-3.957,-3.9562,-3.9592,-3.9614,-3.9613,-3.961,-3.9604,-3.9605,-3.9605,-3.9605,-3.9606,-3.9606,-3.9453,-3.947,-3.9526,-3.957,-3.96,-3.9638,-3.966,-3.9689,-3.9718,-3.9707,-3.9707,-3.9682,-3.9528,-3.9488,-3.9613,-3.9611,-3.9611,-3.961,-3.961,-3.9628,-3.9588,-3.9674,-3.9704,-3.9755,-3.9809,-3.9798,-3.9858,-3.9881,-3.9913,-3.9883,-3.9771,-3.9756,-3.9743,-3.971,-3.9885,-3.9885,-3.9885,-3.9885,-3.9723,-3.9716,-3.9803,-3.9851,-3.9898,-3.9898,-3.9995,-4.0013,-4.0025,-4.0039,-4.0013,-3.9969,-3.9956,-3.9949,-3.9932,-3.99,-4.012,-4.012,-4.0121,-3.983,-3.9827,-3.9912,-3.9924,-3.9963,-3.9996,-4.0088,-4.0144,-4.0149,-4.013,-4.0049,-4.0039,-3.9968,-3.9946,-3.9922,-3.9895,-3.9837,0,0]},{"header":{"parameterUnit":"m.s-1","parameterCategory":1,"la1":30.2992,"la2":30.254,"lo1":-89.0895,"lo2":-89.0443,"dy":0.0025,"dx":0.0025,"nx":19,"ny":19,"refTime":"2026-05-18T03:00:00:Z","depth":0,"parameterNumber":3,"parameterNumberName":"V-component_of_WINDS"},"data":[0,0,0,3.3538,3.354,3.3647,3.3647,3.3783,3.3784,0,0,0,0,0,0,0,0,0,0,0,3.3506,3.3507,3.3538,3.354,3.3647,3.3647,3.3782,3.3784,0,0,0,0,0,0,0,0,0,0,0,3.3506,3.3507,3.3508,3.3541,3.3647,3.3647,3.3782,3.3702,0,0,0,0,0,0,0,0,0,0,3.3598,3.3569,3.3507,3.3508,3.3542,3.3647,3.3647,3.3698,3.3707,3.3734,0,3.3759,0,3.3774,3.3793,3.3793,0,0,0,3.354,3.3562,3.3591,3.3509,3.3543,3.3647,3.3599,3.3703,3.3713,3.3746,3.3761,3.3766,3.3776,3.3794,3.3794,3.3958,3.3959,0,0,3.3534,3.3525,3.3584,3.3598,3.3582,3.3595,3.3602,3.3709,3.3724,3.3762,3.3769,3.3778,3.3795,3.3796,3.3957,3.3958,0,0,0,3.3517,3.3521,3.3547,3.3592,3.3611,3.3598,3.3606,3.372,3.3729,3.3771,3.378,3.3795,3.3797,3.3956,3.3958,3.3989,0,0,0,3.3514,3.3511,3.3545,3.354,3.361,3.3667,3.3614,3.3722,3.3734,3.3779,3.3795,3.3798,3.3955,3.3957,3.3987,3.4005,0,0,0,3.3499,3.351,3.3525,3.354,3.3586,3.3666,3.3681,3.3725,3.374,3.3793,3.3799,3.3955,3.3957,3.3984,3.4001,3.4047,0,0,0,3.3481,3.355,3.3526,3.3607,3.3585,3.3685,3.3681,3.3755,3.3805,3.3796,3.3956,3.3957,3.3983,3.3999,3.4044,3.4084,3.41,0,0,3.3563,3.356,3.3608,3.359,3.3692,3.3669,3.3776,3.3829,3.3841,3.3918,3.3922,3.3988,3.4001,3.4046,3.4191,3.4203,0,0,0,3.3631,3.3666,3.3695,3.3743,3.3787,3.3826,3.3864,3.3884,3.3951,3.3879,3.4016,3.4025,3.4052,3.4071,3.4082,3.4106,3.3966,3.3966,3.3966,3.3734,3.3748,3.383,3.3858,3.3905,3.3945,3.3984,3.4018,3.4016,3.4049,3.4072,3.4158,3.418,3.4188,3.4213,3.4094,3.4094,3.4094,3.4094,3.3856,3.3908,3.3908,3.3987,3.4002,3.4068,3.4111,3.4108,3.4172,3.4141,3.4165,3.413,3.4201,3.4224,3.4096,3.4096,3.4096,3.4095,3.4095,3.3925,3.3952,3.3977,3.4051,3.4106,3.4131,3.4194,3.4205,3.4215,3.4239,3.4265,3.4265,3.4266,3.4251,3.4251,3.4252,3.4252,3.4252,3.4252,3.3986,3.4014,3.4066,3.4121,3.4155,3.42,3.4244,3.4277,3.4317,3.4319,3.432,3.4316,3.4206,3.4178,3.4257,3.4256,3.4255,3.4255,3.4255,3.4104,3.408,3.4161,3.4195,3.4262,3.4317,3.4331,3.4398,3.4427,3.4458,3.445,3.4367,3.4364,3.4355,3.4332,3.4447,3.4447,3.4447,3.4447,3.4163,3.4163,3.4249,3.4304,3.4359,3.4381,3.4472,3.4507,3.4539,3.4558,3.4543,3.4514,3.4505,3.4507,3.4495,3.4474,3.4622,3.4622,3.4622,3.4237,3.4244,3.4319,3.4352,3.4406,3.4452,3.4539,3.4601,3.4632,3.4629,3.4574,3.4566,3.4519,3.4503,3.4497,3.4479,3.4441,0,0]}]]